FW7407 Weather Reports


time (UTC)temp
C
wind
direction
speed
KPH
gust
KPH
rain 1hr
cm
rain 24hr
cm
rain mn
cm
humidity
%
barometer
mb
20260507143049 14 0 0.0 0.0 0.00 0.00 0.00 95 1017.2
20260507141606 13 0 0.0 0.0 0.00 0.00 0.00 95 1017.1
20260507140055 13 0 0.0 0.0 0.00 0.00 0.00 95 1017.0
20260507134556 12 0 0.0 0.0 0.00 0.00 0.00 95 1016.8
20260507133051 12 0 0.0 0.0 0.00 0.00 0.00 94 1016.6
20260507131547 12 0 0.0 0.0 0.00 0.00 0.00 94 1016.6
20260507130047 12 0 0.0 0.0 0.00 0.00 0.00 95 1016.4
20260507124546 12 0 0.0 0.0 0.00 0.00 0.00 94 1016.3
20260507123050 12 0 0.0 0.0 0.00 0.00 0.00 94 1016.3
20260507121548 13 0 0.0 0.0 0.00 0.00 0.00 94 1016.2
20260507120054 12 0 0.0 0.0 0.00 0.00 0.00 94 1016.3
20260507114547 12 0 0.0 0.0 0.00 0.00 0.00 94 1016.3
20260507113047 12 0 0.0 0.0 0.00 0.00 0.00 94 1016.3
20260507111551 12 51 0.0 1.6 0.00 0.00 0.00 94 1016.5
20260507110045 12 0 0.0 0.0 0.00 0.00 0.00 94 1016.7
20260507104556 13 0 0.0 0.0 0.00 0.00 0.00 94 1016.8
20260507103049 12 0 0.0 0.0 0.00 0.00 0.00 94 1016.8
20260507101551 13 0 0.0 0.0 0.00 0.00 0.00 94 1016.8
20260507100047 13 0 0.0 0.0 0.00 0.00 0.00 95 1016.8
20260507094548 13 0 0.0 1.6 0.00 0.00 0.00 94 1016.9
20260507093047 13 0 0.0 0.0 0.00 0.00 0.00 95 1017.0
20260507091544 13 0 0.0 0.0 0.00 0.00 0.00 94 1017.2
20260507090046 13 0 0.0 4.8 0.00 0.00 0.00 95 1017.3
20260507084553 13 0 0.0 0.0 0.00 0.00 0.00 94 1017.7
20260507083049 13 0 0.0 0.0 0.00 0.00 0.00 95 1017.7
20260507081557 13 0 0.0 0.0 0.00 0.00 0.00 94 1017.9
20260507080050 13 0 0.0 1.6 0.00 0.00 0.00 94 1018.0
20260507074552 13 60 0.0 1.6 0.00 0.00 0.00 93 1017.9
20260507073052 14 67 0.0 1.6 0.00 0.00 0.00 93 1017.9
20260507071557 14 0 0.0 4.8 0.00 0.00 0.00 92 1017.9
20260507070059 14 10 1.6 6.4 0.00 0.00 0.00 92 1018.0
20260507064553 14 50 0.0 3.2 0.00 0.00 0.00 91 1018.1
20260507063053 14 37 0.0 4.8 0.00 0.00 0.00 91 1018.2
20260507061552 14 0 0.0 3.2 0.00 0.00 0.00 90 1018.1
20260507060055 14 0 0.0 4.8 0.00 0.00 0.00 90 1018.3
20260507054548 14 0 0.0 0.0 0.00 0.00 0.00 88 1018.1
20260507053056 14 0 0.0 0.0 0.00 0.00 0.00 87 1017.9
20260507051549 14 0 0.0 0.0 0.00 0.00 0.00 86 1017.8
20260507050050 15 0 0.0 0.0 0.00 0.00 0.00 86 1017.8
20260507044557 15 0 0.0 0.0 0.00 0.00 0.00 86 1017.8
20260507043048 14 0 0.0 0.0 0.00 0.00 0.00 87 1017.8
20260507041550 15 0 0.0 3.2 0.00 0.00 0.00 87 1017.9
20260507040055 15 0 0.0 4.8 0.00 0.00 0.00 87 1017.8
20260507034550 15 21 1.6 4.8 0.00 0.00 0.00 86 1017.8
20260507033046 15 348 4.8 9.7 0.00 0.00 0.00 86 1017.6
20260507031553 15 335 3.2 8.0 0.00 0.00 0.00 86 1017.6
20260507030100 15 311 6.4 12.9 0.00 0.00 0.00 86 1017.4
20260507024555 16 323 4.8 11.3 0.00 0.00 0.00 88 1017.1
20260507023055 16 296 6.4 14.5 0.00 0.00 0.00 88 1017.1
20260507021551 16 308 6.4 11.3 0.00 0.00 0.00 87 1017.0
20260507020052 16 297 1.6 11.3 0.00 0.00 0.00 87 1017.0
20260507014554 16 300 3.2 11.3 0.00 0.00 0.00 87 1016.9
20260507013057 17 293 4.8 12.9 0.00 0.00 0.00 86 1016.9
20260507011548 17 302 6.4 14.5 0.00 0.00 0.00 86 1016.8
20260507010046 17 321 6.4 14.5 0.00 0.00 0.00 85 1016.8
20260507004550 17 285 8.0 14.5 0.00 0.00 0.00 85 1016.7
20260507003047 17 258 8.0 16.1 0.00 0.00 0.00 85 1016.8
20260507001548 18 293 8.0 14.5 0.00 0.00 0.00 84 1016.7
20260507000055 18 217 6.4 16.1 0.00 0.00 0.00 83 1016.5
20260506234553 18 318 6.4 14.5 0.00 0.00 0.00 82 1016.6
20260506233052 18 238 4.8 17.7 0.00 0.00 0.00 77 1016.6
20260506231551 18 264 6.4 14.5 0.00 0.00 0.00 75 1016.6
20260506230055 18 259 6.4 12.9 0.00 0.00 0.00 73 1016.6
20260506224600 18 311 6.4 14.5 0.00 0.00 0.00 73 1016.8
20260506223055 18 307 6.4 11.3 0.00 0.00 0.00 74 1017.1
20260506221545 18 304 6.4 11.3 0.00 0.00 0.00 79 1017.3
20260506220048 18 211 6.4 12.9 0.00 0.00 0.00 81 1017.5
20260506214606 18 177 4.8 11.3 0.00 0.00 0.00 81 1017.7
20260506213047 18 281 4.8 14.5 0.00 0.00 0.00 80 1017.8
20260506211550 18 310 4.8 12.9 0.00 0.00 0.00 80 1017.9
20260506210051 18 316 8.0 12.9 0.00 0.00 0.00 78 1018.0
20260506204551 18 245 6.4 12.9 0.00 0.00 0.00 79 1018.1
20260506203051 18 265 4.8 12.9 0.00 0.00 0.00 78 1018.2
20260506201550 18 259 6.4 12.9 0.00 0.00 0.00 79 1018.3
20260506200051 18 280 6.4 12.9 0.00 0.00 0.00 77 1018.4
20260506194600 18 276 4.8 11.3 0.00 0.00 0.00 77 1018.6
20260506193046 18 223 4.8 9.7 0.00 0.00 0.00 79 1018.7
20260506191545 18 304 6.4 11.3 0.00 0.00 0.00 78 1018.9
20260506190047 18 237 6.4 9.7 0.00 0.00 0.00 78 1019.1
20260506184545 17 227 4.8 11.3 0.00 0.00 0.00 81 1019.2
20260506183047 17 233 4.8 8.0 0.00 0.00 0.00 81 1019.2
20260506181547 17 219 4.8 9.7 0.00 0.00 0.00 81 1019.4
20260506180051 17 234 4.8 9.7 0.00 0.00 0.00 83 1019.3
20260506174545 17 249 4.8 9.7 0.00 0.00 0.00 81 1019.2
20260506173049 17 191 4.8 9.7 0.00 0.00 0.00 82 1019.1
20260506171553 17 217 4.8 9.7 0.00 0.00 0.00 81 1019.1
20260506170055 17 126 4.8 9.7 0.00 0.00 0.00 82 1019.1
20260506164550 16 208 3.2 8.0 0.00 0.00 0.00 84 1019.3
20260506163048 16 237 3.2 6.4 0.00 0.00 0.00 84 1019.1
20260506161604 16 134 1.6 4.8 0.00 0.00 0.00 84 1019.1
20260506160052 16 240 1.6 6.4 0.00 0.00 0.00 82 1019.2
20260506154610 16 145 1.6 9.7 0.00 0.00 0.00 83 1019.0
20260506153049 16 234 3.2 8.0 0.00 0.00 0.00 82 1019.0
20260506151548 17 169 0.0 4.8 0.00 0.00 0.00 81 1019.0
20260506150054 17 134 1.6 3.2 0.00 0.00 0.00 82 1019.1
20260506144558 16 106 0.0 1.6 0.00 0.00 0.00 87 1019.0